Location: G�ppingen
(48.7089°N, 9.6563°E)
Time: 23:55:55
(UTC+01:00)

ISS - Pass Details

Date: 13 January 2018
Orbit: 402 x 407 km, 51.6° (Epoch: 20 January)

Event Time Altitude Azimuth Distance (km) Brightness Sun altitude
Exits shadow 07:06:41 12° 259° (W) 1,367 -1.7 -10.2°
Maximum altitude 07:08:34 17° 221° (SW) 1,104 -1.8 -9.9°
Drops below altitude 10° 07:10:48 10° 178° (S) 1,460 -0.7 -9.6°
Sets 07:13:20 0° 158° (SSE) 2,316 0.7 -9.2°
